Location: Moonridge Observatory
(39.2268°N, 77.7914°W)
Time: 02:28:18
(UTC-04:00)

CZ-2C R/B - Visible Passes

Search period start: 27 August 2016 00:00
Search period end: 06 September 2016 00:00
Orbit: 704 x 909 km, 98.2° (Epoch: 26 August)

Date Brightness Start Highest point End Pass type
(mag) Time Alt. Az. Time Alt. Az. Time Alt. Az.
27 Aug 5.6 01:39:04 15° N 01:39:04 15° N 01:39:51 10° N visible
28 Aug 5.6 01:14:04 15° N 01:14:04 15° N 01:14:56 10° N visible
29 Aug 5.7 00:49:05 13° NNE 00:49:05 13° NNE 00:49:45 10° N visible
30 Aug 5.8 00:24:07 10° NNE 00:24:07 10° NNE 00:24:09 10° NNE visible
30 Aug 5.8 02:05:11 11° NNW 02:05:11 11° NNW 02:05:21 10° NNW visible
31 Aug 5.8 01:40:12 13° NNW 01:40:12 13° NNW 01:40:43 10° NNW visible
01 Sep 5.8 01:15:13 13° N 01:15:13 13° N 01:15:49 10° N visible
02 Sep 5.8 00:50:14 12° NNE 00:50:14 12° NNE 00:50:40 10° N visible
04 Sep 5.9 01:41:21 11° NNW 01:41:21 11° NNW 01:41:35 10° NNW visible
05 Sep 5.9 01:16:23 12° N 01:16:23 12° N 01:16:44 10° N visible
